sat.trackr.live / text

‹ back to catalog

KUIPER-00274

NORAD 67792 · 2026-030AE

PAYLOAD ACTIVE UNKNOWN

§ Identity

Operator
Country
US
Launch date
2026-02-12
Launch site
FRGUI
Launch vehicle
Mass (kg)
RCS (m²)

External: N2YO · Heavens-Above · Gunter

§ Orbital elements

Epoch: 2026-05-25T05:01:56.913600Z

Period
97.54 min
Inclination
51.8998°
Eccentricity
0.0004035
Mean motion
14.76348633 rev/d
Perigee alt
638.0 km
Apogee alt
643.7 km
Semi-major
7,019.0 km
B*
2.7421e-4
RAAN
224.4134°
Arg perigee
5.3061°
Mean anomaly
354.7942°
Rev number
1,665

§ Raw data

KUIPER-002741 67792U 26030AE  26145.20968650  .00001706  00000+0  27421-3 0  99982 67792  51.8998 224.4134 0004035   5.3061 354.7942 14.76348633 16657

JSON: /api/v1/satellites/67792 · /tle

For live sub-satellite position, see the globe view (requires WebGL).

§ Visibility from observer

Set your observer location to see the next 7 days of passes ≥ 10°. The values pass through the URL so the page stays shareable.

No JS? Fill the form by hand. The geolocation button needs JavaScript.